Location: Arad
(46.1866°N, 21.3123°E)
Time: 19:56:31
(UTC+03:00)

ISS - Visible Passes

Search period start: 22 September 2021 00:00
Search period end: 02 October 2021 00:00
Orbit: 419 x 424 km, 51.6° (Epoch: 22 September)

Date Brightness Start Highest point End Pass type
(mag) Time Alt. Az. Time Alt. Az. Time Alt. Az.
22 Sep -3.1 20:23:05 10° W 20:26:24 55° NNW 20:29:44 10° ENE visible
22 Sep -1.7 22:00:38 10° WNW 22:02:48 26° NNW 22:02:48 26° NNW visible
23 Sep -2.3 21:13:34 10° WNW 21:16:39 32° N 21:17:41 26° NNE visible
24 Sep -2.5 20:26:28 10° W 20:29:37 35° N 20:32:32 11° NE visible
24 Sep -1.4 22:03:52 10° WNW 22:05:32 23° NW 22:05:32 23° NW visible
25 Sep -2.5 21:16:53 10° WNW 21:19:58 31° N 21:20:21 30° NNE visible
26 Sep -2.3 20:29:51 10° WNW 20:32:54 31° N 20:35:10 15° ENE visible
26 Sep -1.1 22:06:54 10° WNW 22:08:09 20° NW 22:08:09 20° NW visible
27 Sep -2.8 21:19:58 10° WNW 21:22:58 40° N 21:22:58 40° N visible
28 Sep -2.6 20:33:01 10° WNW 20:36:10 35° N 20:37:48 22° ENE visible
28 Sep -0.8 22:09:52 10° WNW 22:10:47 17° WNW 22:10:47 17° WNW visible
29 Sep -2.5 19:46:02 10° WNW 19:49:07 32° N 19:52:11 10° ENE visible
29 Sep -3.0 21:22:57 10° WNW 21:25:38 52° NW 21:25:38 52° NW visible
30 Sep -3.4 20:36:01 10° WNW 20:39:20 53° NNE 20:40:31 33° E visible
30 Sep -0.5 22:13:02 10° WNW 22:13:31 13° W 22:13:31 13° W visible
01 Oct -3.0 19:49:05 10° WNW 19:52:19 41° NNE 19:55:27 11° E visible
01 Oct -2.5 21:25:57 10° WNW 21:28:27 39° WSW 21:28:27 39° WSW visible
